sat.trackr.live / text

‹ back to catalog

KUIPER-00644

NORAD 69788 · 2026-151AB

PAYLOAD ACTIVE UNKNOWN

§ Identity

Operator
Country
US
Launch date
2026-07-02
Launch site
AFETR
Launch vehicle
Mass (kg)
RCS (m²)

External: N2YO · Heavens-Above · Gunter

§ Orbital elements

Epoch: 2026-09-20T04:00:03.000096Z

Period
95.82 min
Inclination
51.8881°
Eccentricity
0.0009469
Mean motion
15.02834884 rev/d
Perigee alt
551.6 km
Apogee alt
564.7 km
Semi-major
6,936.3 km
B*
-2.2966e-3
RAAN
219.2056°
Arg perigee
53.0815°
Mean anomaly
284.8708°
Rev number
491

§ Raw data

KUIPER-006441 69788U 26151AB  26263.16670139 -.00031286  00000+0 -22966-2 0  99932 69788  51.8881 219.2056 0009469  53.0815 284.8708 15.02834884  4910

JSON: /api/v1/satellites/69788 · /tle

For live sub-satellite position, see the globe view (requires WebGL).

§ Visibility from observer

Set your observer location to see the next 7 days of passes ≥ 10°. The values pass through the URL so the page stays shareable.

No JS? Fill the form by hand. The geolocation button needs JavaScript.